Tracking 28790 objects as of 19-Apr-2024
HD Live streaming from Space Station
objects crossing your sky now

BREEZE-M R/B

Track BREEZE-M R/B now!


NORAD ID: 28656
Int'l Code: 2004-008C
Perigee: 4,200.5 km
Apogee: 36,758.9 km
Inclination: 13.3 °
Period: 729.8 minutes
Semi major axis: 26850 km
RCS: 6.2799 m2 (large)
Launch date: March 15, 2004
Source: Commonwealth of Independent States (former USSR) (CIS)
Launch site: TYURATAM MISSILE AND SPACE COMPLEX (TTMTR)

Note: This is a ROCKET BODY
Your satellite tracking list
Your tracking list is empty




NASA's NSSDC Master Catalog

Two Line Element Set (TLE):
1 28656U 04008C   24110.28663425 -.00000253  00000-0  00000+0 0  9993
2 28656  13.3362  39.0653 6062852 145.8395 274.9060  1.97319315138703
Source of the keplerian elements: AFSPC